EW7070 Weather Reports


Display with metric or nautical units.
time (UTC)temp
F
wind
direction
speed
MPH
gust
MPH
rain 1hr
in
rain 24hr
in
rain mn
in
humidity
%
barometer
mb
20260901152013 67 211 3.0 9.0 0.00 0.10 0.07 87 1013.9
20260901151513 67 108 4.0 10.0 0.00 0.10 0.07 86 1013.9
20260901150945 68 172 4.0 10.0 0.00 0.10 0.07 87 1013.8
20260901150445 68 177 2.0 10.0 0.00 0.10 0.07 88 1013.8
20260901145944 67 91 2.0 8.0 0.00 0.10 0.07 89 1013.8
20260901145444 67 155 2.0 8.0 0.00 0.10 0.07 89 1013.7
20260901144918 67 182 2.0 8.0 0.00 0.10 0.07 89 1013.7
20260901144353 67 254 3.0 5.0 0.00 0.10 0.07 90 1013.8
20260901143850 67 235 1.0 9.0 0.00 0.10 0.07 90 1013.8
20260901143322 67 234 0.0 3.0 0.00 0.10 0.07 90 1013.7
20260901143026 67 152 0.0 4.0 0.00 0.10 0.07 90 1013.6
20260901142246 67 124 1.0 4.0 0.00 0.10 0.07 90 1013.7
20260901141723 67 172 2.0 5.0 0.00 0.10 0.07 89 1013.7
20260901141202 67 240 1.0 5.0 0.00 0.10 0.07 91 1013.8
20260901140654 67 270 1.0 4.0 0.00 0.10 0.07 92 1013.6
20260901140156 66 130 0.0 6.0 0.00 0.10 0.07 93 1013.7
20260901135628 66 274 0.0 4.0 0.00 0.10 0.07 93 1013.6
20260901135353 66 162 1.0 4.0 0.04 0.10 0.07 94 1013.6
20260901134601 66 253 2.0 4.0 0.05 0.10 0.07 93 1013.5
20260901134040 66 230 1.0 6.0 0.05 0.10 0.07 93 1013.7
20260901133529 66 242 1.0 6.0 0.05 0.10 0.07 93 1013.6
20260901133028 66 222 1.0 5.0 0.05 0.10 0.07 94 1013.5
20260901132527 66 245 0.0 4.0 0.05 0.10 0.07 96 1013.5
20260901132004 65 282 1.0 4.0 0.05 0.10 0.07 96 1013.6
20260901131443 65 285 0.0 4.0 0.05 0.10 0.07 96 1013.6
20260901130914 65 345 0.0 2.0 0.05 0.10 0.07 97 1013.5
20260901130355 65 272 0.0 2.0 0.05 0.10 0.07 97 1013.6
20260901125826 64 177 1.0 5.0 0.05 0.10 0.07 96 1013.6
20260901125323 64 114 1.0 5.0 0.04 0.09 0.06 96 1013.6
20260901124823 64 163 2.0 8.0 0.00 0.05 0.02 97 1013.5
20260901124323 64 235 2.0 8.0 0.00 0.05 0.02 98 1013.4
20260901123756 64 117 1.0 5.0 0.00 0.05 0.02 98 1013.4
20260901123235 64 246 1.0 6.0 0.00 0.05 0.02 98 1013.3
20260901122706 64 213 2.0 8.0 0.00 0.05 0.02 98 1013.3
20260901122201 63 191 3.0 8.0 0.00 0.05 0.02 98 1013.3
20260901121642 63 162 2.0 7.0 0.00 0.05 0.02 99 1013.1
20260901121114 63 202 2.0 6.0 0.00 0.05 0.02 99 1013.1
20260901120612 63 235 2.0 7.0 0.00 0.05 0.02 99 1013.1
20260901120113 63 251 1.0 7.0 0.00 0.05 0.02 98 1013.1
20260901115840 63 133 1.0 5.0 0.00 0.05 0.02 99 1013.1
20260901115340 63 245 1.0 5.0 0.00 0.05 0.02 99 1012.9
20260901114607 62 187 1.0 4.0 0.00 0.05 0.02 99 1013.0
20260901114315 62 247 0.0 3.0 0.01 0.05 0.02 99 1012.8
20260901113523 62 196 0.0 3.0 0.01 0.05 0.02 99 1012.9
20260901113254 62 213 0.0 0.0 0.01 0.05 0.02 98 1012.8
20260901112731 62 259 2.0 8.0 0.01 0.05 0.02 98 1012.9
20260901111934 62 270 2.0 5.0 0.01 0.05 0.02 98 1012.8
20260901111429 62 252 1.0 5.0 0.01 0.05 0.02 99 1012.5
20260901110906 62 224 0.0 3.0 0.01 0.05 0.02 98 1012.5
20260901110344 62 233 1.0 3.0 0.01 0.05 0.02 98 1012.4
20260901105832 62 229 1.0 4.0 0.01 0.05 0.02 98 1012.3
20260901105547 62 224 1.0 4.0 0.01 0.05 0.02 98 1012.2
20260901105432 62 255 2.0 4.0 0.01 0.05 0.02 99 1012.1
20260901104315 62 259 2.0 4.0 0.00 0.04 0.01 99 1012.0
20260901103815 62 264 1.0 4.0 0.00 0.04 0.01 99 1011.8
20260901103313 62 239 1.0 4.0 0.00 0.04 0.01 99 1011.8
20260901103037 62 284 0.0 1.0 0.00 0.04 0.01 98 1011.5
20260901102244 62 284 0.0 1.0 0.00 0.04 0.01 99 1011.4
20260901101744 62 284 0.0 1.0 0.00 0.04 0.01 99 1011.5
20260901101240 62 284 0.0 1.0 0.00 0.04 0.01 99 1011.2
20260901100725 62 284 0.0 1.0 0.00 0.04 0.01 99 1011.2
20260901100718 62 284 0.0 1.0 0.00 0.04 0.01 99 1011.2
20260901095928 62 268 0.0 0.0 0.00 0.04 0.01 98 1011.2
20260901095156 62 268 0.0 0.0 0.00 0.04 0.01 98 1011.1
20260901094648 62 268 0.0 1.0 0.00 0.04 0.01 98 1011.1
20260901094640 62 268 0.0 0.0 0.00 0.04 0.01 98 1011.1
20260901093901 62 268 0.0 1.0 0.00 0.04 0.01 98 1011.2
20260901093101 62 268 0.0 2.0 0.00 0.04 0.01 98 1011.1
20260901092533 62 279 1.0 2.0 0.00 0.04 0.01 98 1011.0
20260901092033 62 264 0.0 2.0 0.00 0.04 0.01 98 1010.9
20260901091526 62 239 0.0 2.0 0.00 0.04 0.01 98 1010.7
20260901091015 62 239 0.0 2.0 0.00 0.04 0.01 98 1010.7
20260901090451 62 261 0.0 1.0 0.01 0.04 0.01 98 1010.6
20260901085951 62 261 0.0 1.0 0.01 0.04 0.01 98 1010.5
20260901085422 62 261 0.0 1.0 0.01 0.04 0.01 98 1010.4
20260901085145 62 261 0.0 2.0 0.01 0.04 0.01 98 1010.5
20260901084415 62 207 0.0 3.0 0.01 0.04 0.01 98 1010.6
20260901083856 62 255 1.0 3.0 0.01 0.04 0.01 98 1010.4
20260901083354 62 237 1.0 3.0 0.01 0.04 0.01 98 1010.5
20260901082857 62 260 1.0 3.0 0.01 0.04 0.01 98 1010.4
20260901082356 62 257 0.0 2.0 0.01 0.04 0.01 98 1010.4
20260901081851 62 244 0.0 0.0 0.01 0.04 0.01 98 1010.4
20260901081353 62 261 0.0 0.0 0.01 0.04 0.01 98 1010.1
20260901081109 62 246 0.0 0.0 0.01 0.04 0.01 98 1010.1
20260901080324 62 270 0.0 0.0 0.00 0.03 0.00 98 1010.1
20260901075818 62 262 0.0 0.0 0.00 0.03 0.00 98 1010.1
20260901075320 62 262 0.0 0.0 0.00 0.03 0.00 98 1010.0
20260901074806 62 258 0.0 0.0 0.00 0.03 0.00 98 1009.8
20260901074636 62 256 0.0 0.0 0.00 0.03 0.00 98 1009.6
20260901074530 62 251 0.0 0.0 0.00 0.03 0.00 98 1009.4
20260901073246 62 305 0.0 0.0 0.00 0.03 0.00 98 1009.3
20260901072747 62 305 0.0 0.0 0.00 0.03 0.00 98 1009.2
20260901072245 62 305 0.0 0.0 0.00 0.03 0.00 98 1009.0
20260901072014 62 305 0.0 0.0 0.00 0.03 0.00 98 1009.0
20260901071226 62 305 0.0 0.0 0.00 0.03 0.00 98 1009.2
20260901070725 62 305 0.0 0.0 0.00 0.03 0.00 98 1009.3
20260901070219 62 305 0.0 0.0 0.00 0.03 0.00 98 1009.3
20260901065719 62 305 0.0 0.0 0.00 0.03 0.00 98 1009.5
20260901065451 62 305 0.0 0.0 0.00 0.03 0.00 98 1009.5
20260901064716 62 249 0.0 0.0 0.00 0.03 0.00 98 1009.5
20260901064212 62 249 0.0 0.0 0.00 0.03 0.00 98 1009.6
20260901063711 62 228 0.0 0.0 0.00 0.03 0.00 98 1009.6
20260901063435 62 208 0.0 0.0 0.00 0.03 0.00 98 1009.6
20260901062649 62 197 0.0 0.0 0.00 0.03 0.00 98 1009.7
20260901062354 62 197 0.0 0.0 0.00 0.03 0.00 98 1009.7
20260901061616 62 187 0.0 0.0 0.00 0.03 0.00 98 1009.7
20260901061115 62 187 0.0 1.0 0.00 0.03 0.00 98 1009.7
20260901060611 62 106 0.0 1.0 0.00 0.03 0.00 98 1009.6
20260901060046 62 99 0.0 2.0 0.00 0.03 0.00 98 1009.5
20260901055546 62 106 0.0 3.0 0.00 0.03 0.00 98 1009.7
20260901055034 62 101 0.0 3.0 0.00 0.03 0.00 98 1009.7
20260901055026 62 139 0.0 3.0 0.00 0.03 0.00 98 1009.8
20260901054007 62 143 0.0 3.0 0.00 0.03 0.00 98 1009.7
20260901053504 62 177 0.0 1.0 0.00 0.03 0.00 98 1009.8
20260901053004 62 171 0.0 1.0 0.00 0.03 0.00 98 1009.9
20260901052458 62 118 0.0 1.0 0.00 0.03 0.00 98 1010.0
20260901051957 62 112 0.0 0.0 0.00 0.03 0.00 98 1010.1
20260901051431 62 158 0.0 0.0 0.00 0.03 0.00 98 1010.1
20260901050915 63 246 0.0 0.0 0.00 0.03 0.00 98 1010.2
20260901050402 63 246 0.0 0.0 0.00 0.03 0.00 98 1010.5
20260901045848 63 246 0.0 0.0 0.00 0.03 0.00 98 1010.3
20260901045347 63 246 0.0 0.0 0.00 0.03 0.00 98 1010.3
20260901044817 63 246 0.0 0.0 0.00 0.03 0.00 98 1010.4
20260901044315 63 246 0.0 0.0 0.00 0.03 0.00 98 1010.6
20260901043816 63 246 0.0 0.0 0.00 0.03 0.00 98 1010.8
20260901043315 63 246 1.0 4.0 0.00 0.03 0.00 98 1010.8
20260901042802 63 246 1.0 4.0 0.00 0.03 0.00 98 1010.9
20260901042519 63 245 1.0 4.0 0.00 0.03 0.00 98 1011.0
20260901041749 63 258 1.0 4.0 0.00 0.03 0.00 98 1011.1
20260901041251 63 288 1.0 3.0 0.00 0.03 0.00 98 1011.0
20260901041244 63 294 1.0 3.0 0.00 0.03 0.00 98 1011.0
20260901040248 63 258 0.0 1.0 0.00 0.03 0.00 98 1011.0
20260901040241 63 288 0.0 3.0 0.00 0.03 0.00 98 1011.1
20260901035459 63 270 0.0 2.0 0.00 0.03 0.00 98 1011.0
20260901034728 63 257 0.0 2.0 0.00 0.03 0.00 98 1010.8
20260901034458 63 295 0.0 2.0 0.00 0.03 0.00 97 1010.8
20260901033716 63 267 1.0 3.0 0.00 0.03 0.00 97 1010.6
20260901033427 63 267 1.0 3.0 0.00 0.03 0.00 97 1010.5
20260901032658 63 260 1.0 4.0 0.00 0.03 0.00 97 1010.6
20260901032147 63 231 1.0 3.0 0.00 0.03 0.00 97 1010.7
20260901031643 63 296 1.0 6.0 0.00 0.03 0.00 97 1010.8
20260901031132 63 285 1.0 5.0 0.00 0.03 0.00 97 1010.9
20260901030838 63 260 2.0 6.0 0.00 0.03 0.00 97 1010.6
20260901030042 63 274 2.0 6.0 0.00 0.03 0.00 97 1010.7
20260901025536 63 271 0.0 2.0 0.00 0.03 0.03 97 1010.5
20260901025008 63 276 0.0 1.0 0.00 0.03 0.03 97 1010.1
20260901024459 63 276 0.0 1.0 0.00 0.03 0.03 97 1010.4
20260901023949 63 276 0.0 2.0 0.00 0.03 0.03 97 1010.2
20260901023436 63 276 0.0 1.0 0.00 0.03 0.03 97 1010.2
20260901022910 63 187 0.0 4.0 0.00 0.03 0.03 97 1010.0
20260901022408 63 213 1.0 4.0 0.00 0.03 0.03 97 1009.7
20260901021857 63 221 1.0 4.0 0.00 0.03 0.03 97 1009.7
20260901021355 63 210 1.0 3.0 0.00 0.03 0.03 97 1009.5
20260901020853 64 68 1.0 3.0 0.00 0.03 0.03 97 1009.8
20260901020350 63 208 1.0 3.0 0.00 0.03 0.03 97 1009.5
20260901015820 64 124 1.0 3.0 0.00 0.03 0.03 97 1009.9
20260901015310 64 177 0.0 2.0 0.00 0.03 0.03 97 1010.0
20260901014745 64 105 0.0 0.0 0.00 0.03 0.03 97 1010.6
20260901014243 64 227 0.0 0.0 0.00 0.03 0.03 97 1010.9
20260901013713 64 229 0.0 0.0 0.00 0.03 0.03 97 1010.9
20260901013421 64 216 0.0 0.0 0.00 0.03 0.03 97 1011.1
20260901013143 64 197 0.0 0.0 0.00 0.03 0.03 97 1011.1
20260901012137 64 268 0.0 0.0 0.00 0.03 0.03 97 1011.3
20260901011636 64 251 0.0 0.0 0.00 0.03 0.03 98 1011.1
20260901011109 64 182 0.0 0.0 0.00 0.03 0.03 98 1010.9
20260901010558 64 244 0.0 0.0 0.00 0.03 0.03 98 1011.2
20260901010046 64 245 0.0 0.0 0.00 0.03 0.03 98 1011.0
20260901005548 64 266 1.0 2.0 0.00 0.03 0.03 98 1011.2
20260901005019 64 246 1.0 4.0 0.00 0.03 0.03 98 1011.1
20260901004515 64 275 0.0 3.0 0.00 0.03 0.03 98 1011.1
20260901004012 64 271 0.0 2.0 0.00 0.03 0.03 98 1011.0
20260901003444 64 271 0.0 2.0 0.00 0.03 0.03 98 1010.9
20260901002936 64 271 0.0 3.0 0.00 0.03 0.03 98 1010.9
20260901002421 64 271 1.0 3.0 0.00 0.03 0.03 97 1011.0
20260901001922 64 271 1.0 3.0 0.00 0.03 0.03 97 1011.2
20260901001650 64 262 1.0 3.0 0.00 0.03 0.03 97 1011.1
20260901000916 64 274 1.0 3.0 0.00 0.03 0.03 97 1011.0
20260901000350 64 268 0.0 2.0 0.00 0.03 0.03 97 1010.9
20260831235821 64 334 0.0 1.0 0.00 0.03 0.03 97 1010.6
20260831235254 64 334 0.0 1.0 0.00 0.03 0.03 97 1010.3
20260831234729 64 334 0.0 1.0 0.00 0.03 0.03 97 1010.4
20260831234158 64 334 0.0 3.0 0.00 0.05 0.03 97 1010.4
20260831233631 64 334 1.0 3.0 0.00 0.06 0.03 97 1010.5
20260831233106 64 302 1.0 2.0 0.00 0.06 0.03 97 1010.8
20260831232607 64 239 0.0 2.0 0.00 0.06 0.03 97 1010.2
20260831232105 64 317 0.0 2.0 0.00 0.06 0.03 97 1010.4
20260831231602 64 317 0.0 2.0 0.00 0.06 0.03 97 1010.2
20260831231103 64 352 1.0 2.0 0.00 0.06 0.03 97 1010.1
20260831230602 64 66 1.0 2.0 0.00 0.06 0.03 97 1009.5
20260831230055 64 265 0.0 1.0 0.00 0.06 0.03 97 1009.6
20260831225758 64 265 0.0 2.0 0.00 0.06 0.03 97 1009.8
20260831225027 64 265 0.0 2.0 0.00 0.06 0.03 97 1010.0
20260831224519 65 296 0.0 1.0 0.00 0.06 0.03 97 1009.6
20260831224012 64 296 0.0 1.0 0.00 0.06 0.03 97 1009.5
20260831223445 65 296 0.0 0.0 0.00 0.07 0.03 97 1009.4
20260831223151 65 296 0.0 1.0 0.00 0.07 0.03 97 1009.6
20260831222636 64 296 0.0 2.0 0.00 0.07 0.03 97 1009.6
20260831221906 64 283 0.0 1.0 0.00 0.07 0.03 97 1009.4
20260831221405 64 197 0.0 2.0 0.00 0.07 0.03 97 1009.4
20260831220903 65 270 0.0 2.0 0.00 0.07 0.03 97 1009.5
20260831220337 65 311 0.0 2.0 0.00 0.07 0.03 96 1009.4
20260831215830 65 311 0.0 1.0 0.00 0.07 0.03 96 1009.2
20260831215559 65 311 0.0 2.0 0.00 0.07 0.03 96 1009.3
20260831214802 65 318 0.0 3.0 0.00 0.07 0.03 96 1009.4
20260831214237 65 348 0.0 3.0 0.00 0.07 0.03 96 1009.3
20260831213732 65 253 0.0 3.0 0.00 0.07 0.03 96 1008.9
20260831213221 65 286 1.0 3.0 0.00 0.07 0.03 96 1008.8
20260831212720 65 286 0.0 3.0 0.00 0.07 0.03 96 1009.0
20260831212155 65 260 0.0 4.0 0.00 0.07 0.03 96 1008.7
20260831211626 65 244 1.0 4.0 0.00 0.07 0.03 96 1008.4
20260831211125 65 271 2.0 4.0 0.00 0.07 0.03 96 1008.4
20260831210616 65 268 2.0 4.0 0.00 0.07 0.03 96 1008.5
20260831210115 65 269 2.0 3.0 0.00 0.07 0.03 95 1008.4
20260831205549 65 287 3.0 6.0 0.00 0.07 0.03 95 1008.1
20260831205249 65 256 3.0 6.0 0.00 0.07 0.03 95 1008.1
20260831204452 65 259 3.0 6.0 0.00 0.07 0.03 95 1007.7
20260831203924 65 248 2.0 8.0 0.00 0.07 0.03 95 1007.5
20260831203420 65 282 3.0 8.0 0.00 0.07 0.03 95 1007.1
20260831202912 65 249 4.0 8.0 0.00 0.07 0.03 95 1006.7
20260831202343 65 283 2.0 8.0 0.00 0.07 0.03 95 1006.7
20260831201841 65 263 2.0 4.0 0.00 0.07 0.03 95 1006.5
20260831201320 65 320 2.0 6.0 0.00 0.07 0.03 95 1006.1
20260831200706 65 206 2.0 6.0 0.00 0.07 0.03 95 1005.7
20260831200206 65 237 3.0 14.0 0.00 0.07 0.03 94 1005.6
20260831195659 65 203 4.0 14.0 0.00 0.07 0.03 95 1005.5
20260831195155 65 137 7.0 14.0 0.00 0.07 0.03 95 1005.2
20260831194653 64 112 8.0 14.0 0.00 0.07 0.03 95 1005.5
20260831194142 64 103 7.0 12.0 0.00 0.07 0.03 95 1005.8
20260831193642 64 82 7.0 11.0 0.00 0.07 0.03 95 1006.7
20260831193134 64 120 7.0 12.0 0.00 0.07 0.03 96 1007.6
20260831192632 64 90 6.0 12.0 0.00 0.07 0.03 96 1007.8
20260831192133 64 60 4.0 7.0 0.01 0.07 0.03 96 1008.5
20260831191614 64 79 3.0 7.0 0.01 0.07 0.03 96 1009.0
20260831191345 65 103 2.0 4.0 0.01 0.07 0.03 96 1009.3
20260831190613 65 103 2.0 4.0 0.01 0.07 0.03 96 1009.5
20260831190050 65 73 1.0 4.0 0.01 0.07 0.03 96 1009.6
20260831185550 65 15 2.0 4.0 0.01 0.07 0.03 96 1009.7
20260831185021 65 351 3.0 5.0 0.01 0.07 0.03 96 1009.8
20260831184453 65 353 2.0 5.0 0.01 0.07 0.03 96 1009.8
20260831183927 65 355 2.0 5.0 0.02 0.07 0.03 96 1009.8
20260831183400 65 324 2.0 6.0 0.02 0.07 0.03 96 1009.9
20260831182830 65 344 2.0 6.0 0.02 0.07 0.03 96 1010.1
20260831182327 65 295 2.0 6.0 0.01 0.06 0.03 96 1010.1
20260831181800 65 332 2.0 5.0 0.01 0.06 0.02 96 1010.2
20260831181300 65 309 2.0 4.0 0.01 0.06 0.02 96 1010.3
20260831180758 65 310 1.0 6.0 0.01 0.06 0.02 95 1010.1
20260831180529 65 351 1.0 6.0 0.01 0.06 0.02 95 1010.0
20260831175800 65 16 3.0 7.0 0.01 0.06 0.02 95 1010.0
20260831175240 65 3 3.0 7.0 0.01 0.06 0.02 95 1009.9
20260831174716 65 332 3.0 7.0 0.01 0.06 0.02 95 1009.8
20260831174207 65 281 3.0 7.0 0.00 0.05 0.01 95 1009.7
20260831173140 65 324 2.0 5.0 0.01 0.05 0.01 94 1009.4
20260831172638 65 313 1.0 4.0 0.01 0.05 0.01 94 1009.3
20260831172135 65 303 0.0 2.0 0.01 0.05 0.01 94 1009.1
20260831171617 65 303 0.0 2.0 0.01 0.05 0.01 93 1008.9
20260831171112 65 303 0.0 1.0 0.01 0.05 0.01 93 1009.0
20260831170833 65 303 1.0 3.0 0.01 0.05 0.01 94 1009.1
20260831170039 65 303 2.0 3.0 0.01 0.05 0.01 94 1009.2
20260831165750 65 270 2.0 3.0 0.01 0.05 0.01 93 1009.4
20260831165015 66 298 2.0 4.0 0.01 0.05 0.01 92 1009.5
20260831164745 66 353 1.0 4.0 0.01 0.05 0.01 92 1009.4
20260831163953 66 286 0.0 2.0 0.00 0.04 0.00 92 1009.5
20260831163450 66 249 1.0 3.0 0.00 0.04 0.00 92 1009.6
20260831162947 66 262 2.0 3.0 0.00 0.04 0.00 92 1009.6
20260831162447 66 303 1.0 3.0 0.00 0.04 0.00 92 1009.4
20260831161947 66 293 0.0 1.0 0.00 0.04 0.00 91 1009.5
20260831161942 66 293 0.0 2.0 0.00 0.04 0.00 90 1009.6
20260831161152 66 293 0.0 2.0 0.00 0.04 0.00 90 1009.5
20260831160422 66 218 0.0 0.0 0.00 0.04 0.00 90 1009.3
20260831155922 66 218 0.0 2.0 0.00 0.04 0.00 90 1009.4
20260831155353 66 223 0.0 2.0 0.00 0.04 0.00 90 1009.5
20260831154828 66 249 0.0 0.0 0.00 0.04 0.00 90 1009.3
20260831154320 66 249 0.0 2.0 0.00 0.04 0.00 90 1009.4
20260831153818 66 249 0.0 2.0 0.00 0.04 0.00 90 1009.5
20260831153319 66 249 1.0 2.0 0.00 0.04 0.00 90 1009.6
20260831153311 66 249 1.0 3.0 0.00 0.04 0.00 89 1009.5